Hourly Weather Alisovo

Today, 27 February, Saturday

Time Temperature Precipitation Wind Pressure Humidity
00:00 -23°C° 0 mm 6 mps 733 mmHg 95%
01:00 -23°C° 0 mm 7 mps 732 mmHg 94%
02:00 -22°C° 0.3 mm 8 mps 731 mmHg 94%
03:00 -22°C° 0.3 mm 8 mps 730 mmHg 94%
04:00 -21°C° 0 mm 9 mps 729 mmHg 93%
05:00 -20°C° 1.6 mm 9 mps 728 mmHg 93%
06:00 -19°C° 1.6 mm 9 mps 727 mmHg 93%
07:00 -18°C° 1.6 mm 8 mps 726 mmHg 94%
08:00 -17°C° 0.4 mm 8 mps 725 mmHg 94%
09:00 -15°C° 0.4 mm 7 mps 725 mmHg 94%
10:00 -14°C° 0 mm 7 mps 725 mmHg 93%
11:00 -13°C° 0.3 mm 7 mps 725 mmHg 94%
12:00 -10°C° 0.3 mm 6 mps 724 mmHg 94%
13:00 -9°C° 0.3 mm 6 mps 724 mmHg 95%
14:00 -7°C° 0.2 mm 5 mps 724 mmHg 96%
15:00 -7°C° 0.2 mm 4 mps 724 mmHg 96%
16:00 -5°C° 0 mm 3 mps 724 mmHg 96%
17:00 -4°C° 0.2 mm 3 mps 724 mmHg 97%
18:00 -4°C° 0.2 mm 3 mps 724 mmHg 97%
19:00 -3°C° 0.2 mm 4 mps 723 mmHg 98%
20:00 -3°C° 0.4 mm 4 mps 723 mmHg 98%
21:00 -3°C° 0.4 mm 4 mps 723 mmHg 98%
22:00 -2°C° 0.4 mm 4 mps 723 mmHg 98%
23:00 -2°C° 0.2 mm 4 mps 723 mmHg 98%

Tomorrow, 28 February, Sunday

Time Temperature Precipitation Wind Pressure Humidity
00:00 -3°C° 0.2 mm 4 mps 722 mmHg 97%
01:00 -3°C° 0.2 mm 4 mps 722 mmHg 97%
02:00 -3°C° 0.2 mm 4 mps 722 mmHg 97%
03:00 -3°C° 0.2 mm 4 mps 721 mmHg 97%
04:00 -3°C° 0.2 mm 4 mps 721 mmHg 97%
05:00 -3°C° 0.3 mm 4 mps 721 mmHg 97%
06:00 -4°C° 0.3 mm 4 mps 721 mmHg 97%
07:00 -4°C° 0.3 mm 4 mps 721 mmHg 97%
08:00 -4°C° 0.2 mm 4 mps 721 mmHg 96%
09:00 -4°C° 0.2 mm 4 mps 722 mmHg 96%
10:00 -5°C° 0.2 mm 4 mps 722 mmHg 95%
11:00 -7°C° 0.1 mm 4 mps 722 mmHg 95%
12:00 -8°C° 0.1 mm 4 mps 723 mmHg 95%
13:00 -11°C° 0.1 mm 5 mps 723 mmHg 94%
14:00 -11°C° 0 mm 5 mps 724 mmHg 94%
15:00 -12°C° 0 mm 5 mps 724 mmHg 93%
16:00 -13°C° 0 mm 5 mps 725 mmHg 93%
17:00 -13°C° 0 mm 5 mps 726 mmHg 93%
18:00 -14°C° 0 mm 5 mps 726 mmHg 93%
19:00 -14°C° 0 mm 5 mps 727 mmHg 93%
20:00 -15°C° 0 mm 4 mps 728 mmHg 94%
21:00 -16°C° 0 mm 4 mps 728 mmHg 95%
22:00 -17°C° 0 mm 4 mps 729 mmHg 95%
23:00 -16°C° 0.1 mm 3 mps 729 mmHg 95%

Day after tomorrow, 1 March, Monday

Time Temperature Precipitation Wind Pressure Humidity
00:00 -17°C° 0.1 mm 3 mps 730 mmHg 95%
01:00 -17°C° 0.1 mm 3 mps 730 mmHg 95%
02:00 -17°C° 0.1 mm 3 mps 731 mmHg 95%
03:00 -18°C° 0.1 mm 3 mps 731 mmHg 95%
04:00 -18°C° 0.1 mm 3 mps 731 mmHg 95%
05:00 -18°C° 0.1 mm 3 mps 732 mmHg 96%
06:00 -18°C° 0.1 mm 2 mps 732 mmHg 96%
07:00 -18°C° 0.1 mm 2 mps 733 mmHg 96%
08:00 -18°C° 0 mm 2 mps 733 mmHg 95%
09:00 -18°C° 0 mm 3 mps 734 mmHg 94%
10:00 -18°C° 0 mm 3 mps 734 mmHg 94%
11:00 -17°C° 0 mm 3 mps 734 mmHg 93%
12:00 -17°C° 0 mm 3 mps 735 mmHg 93%
13:00 -16°C° 0 mm 3 mps 735 mmHg 92%
14:00 -16°C° 0 mm 3 mps 735 mmHg 92%
15:00 -16°C° 0 mm 3 mps 735 mmHg 92%
16:00 -16°C° 0 mm 3 mps 736 mmHg 93%
17:00 -17°C° 0 mm 3 mps 736 mmHg 94%
18:00 -17°C° 0 mm 3 mps 736 mmHg 95%
19:00 -18°C° 0 mm 3 mps 736 mmHg 96%
20:00 -21°C° 0 mm 3 mps 736 mmHg 97%
21:00 -22°C° 0 mm 3 mps 737 mmHg 97%
22:00 -21°C° 0 mm 2 mps 737 mmHg 98%
23:00 -23°C° 0 mm 2 mps 736 mmHg 99%

2 March, Tuesday

Time Temperature Precipitation Wind Pressure Humidity
00:00 -24°C° 0 mm 2 mps 736 mmHg 99%
01:00 -25°C° 0 mm 2 mps 736 mmHg 99%
02:00 -25°C° 0 mm 2 mps 736 mmHg 99%
03:00 -26°C° 0 mm 2 mps 736 mmHg 99%
04:00 -27°C° 0 mm 2 mps 736 mmHg 99%
05:00 -27°C° 0 mm 2 mps 736 mmHg 99%
06:00 -27°C° 0 mm 2 mps 735 mmHg 99%
07:00 -27°C° 0 mm 2 mps 735 mmHg 99%
08:00 -26°C° 0 mm 2 mps 735 mmHg 98%
09:00 -25°C° 0 mm 3 mps 735 mmHg 97%
10:00 -24°C° 0 mm 3 mps 735 mmHg 97%
11:00 -24°C° 0 mm 4 mps 734 mmHg 96%
12:00 -24°C° 0 mm 5 mps 734 mmHg 96%
13:00 -22°C° 0 mm 6 mps 733 mmHg 95%
14:00 -21°C° 0 mm 6 mps 733 mmHg 95%
15:00 -21°C° 0 mm 6 mps 733 mmHg 94%
16:00 -20°C° 0 mm 7 mps 732 mmHg 94%
17:00 -19°C° 0 mm 7 mps 732 mmHg 93%
18:00 -18°C° 0 mm 7 mps 731 mmHg 93%
19:00 -18°C° 0 mm 7 mps 730 mmHg 93%
20:00 -15°C° 0.2 mm 7 mps 730 mmHg 93%
21:00 -14°C° 0.2 mm 7 mps 729 mmHg 93%
22:00 -12°C° 0.2 mm 7 mps 729 mmHg 94%
23:00 -11°C° 0.3 mm 7 mps 728 mmHg 94%

3 March, Wednesday

Time Temperature Precipitation Wind Pressure Humidity
00:00 -9°C° 0.3 mm 7 mps 727 mmHg 94%
01:00 -8°C° 0.3 mm 7 mps 727 mmHg 95%
02:00 -8°C° 0.3 mm 7 mps 726 mmHg 95%
03:00 -8°C° 0.3 mm 7 mps 725 mmHg 95%
04:00 -8°C° 0.3 mm 6 mps 725 mmHg 95%
05:00 -6°C° 0.3 mm 6 mps 724 mmHg 95%
06:00 -6°C° 0.3 mm 6 mps 724 mmHg 95%
07:00 -6°C° 0.3 mm 6 mps 723 mmHg 96%
08:00 -6°C° 0.3 mm 6 mps 723 mmHg 95%
09:00 -6°C° 0.3 mm 5 mps 723 mmHg 95%
10:00 -6°C° 0.3 mm 5 mps 723 mmHg 95%
11:00 -6°C° 0.2 mm 5 mps 723 mmHg 95%
12:00 -5°C° 0.2 mm 5 mps 723 mmHg 95%
13:00 -5°C° 0.2 mm 5 mps 723 mmHg 95%
14:00 -5°C° 0.2 mm 5 mps 723 mmHg 95%
15:00 -6°C° 0.2 mm 5 mps 723 mmHg 94%
16:00 -6°C° 0.2 mm 6 mps 724 mmHg 94%
17:00 -8°C° 0.1 mm 6 mps 724 mmHg 94%
18:00 -7°C° 0.1 mm 5 mps 724 mmHg 94%
19:00 -8°C° 0.1 mm 5 mps 724 mmHg 94%
20:00 -10°C° 0 mm 5 mps 725 mmHg 94%
21:00 -9°C° 0 mm 4 mps 725 mmHg 94%
22:00 -10°C° 0 mm 4 mps 726 mmHg 95%
23:00 -10°C° 0 mm 4 mps 726 mmHg 95%

4 March, Thursday

Time Temperature Precipitation Wind Pressure Humidity
00:00 -10°C° 0 mm 3 mps 726 mmHg 95%
01:00 -10°C° 0 mm 3 mps 726 mmHg 96%
02:00 -10°C° 0.1 mm 3 mps 727 mmHg 95%
03:00 -10°C° 0.1 mm 3 mps 727 mmHg 95%
04:00 -12°C° 0.1 mm 3 mps 727 mmHg 95%
05:00 -12°C° 0 mm 3 mps 728 mmHg 95%
06:00 -12°C° 0 mm 4 mps 728 mmHg 95%
07:00 -12°C° 0 mm 4 mps 728 mmHg 95%
08:00 -14°C° 0 mm 4 mps 729 mmHg 94%
09:00 -14°C° 0 mm 4 mps 729 mmHg 93%
10:00 -15°C° 0 mm 5 mps 730 mmHg 93%
11:00 -14°C° 0 mm 5 mps 730 mmHg 93%
12:00 -14°C° 0 mm 5 mps 731 mmHg 93%
13:00 -14°C° 0 mm 5 mps 731 mmHg 93%
14:00 -14°C° 0 mm 5 mps 732 mmHg 92%
15:00 -14°C° 0 mm 4 mps 732 mmHg 92%
16:00 -12°C° 0 mm 4 mps 732 mmHg 92%
17:00 -15°C° 0 mm 4 mps 733 mmHg 93%
18:00 -15°C° 0 mm 3 mps 733 mmHg 95%
19:00 -16°C° 0 mm 3 mps 733 mmHg 96%
20:00 -16°C° 0 mm 3 mps 734 mmHg 96%
21:00 -17°C° 0 mm 3 mps 734 mmHg 97%
22:00 -17°C° 0 mm 3 mps 735 mmHg 97%
23:00 -18°C° 0 mm 3 mps 735 mmHg 97%
Show more